Flag for Germany Weather past 2 weeks in Tuttlingen, Baden-Württemberg, Germany

Now
36 °F

Overcast.


Feels Like: 36 °F
Forecast: 21 / 42 °F
Wind: 2 mph from North

Location: Konstanz

Current Time: Mar 5, 2015 at 11:45:29 PM

Latest Report: Mar 5, 2015 at 10:00 PM


Visibility: 34 mi

Pressure: 30.67 "Hg

Humidity: 69%

Dew point: 27 °F

Location of TuttlingenLocation

Historic Weather in Tuttlingen — Graph

°F

Tuttlingen temperature yesterday

Maximum temperature yesterday: 44 °F (at 2:00 AM)
Minimum temperature yesterday: 33 °F (at 9:00 PM)
Average temperature yesterday: 38 °F

Past Weeks' High & Low Weather Summary

 TemperatureHumidityPressure
High52 °F (Mar 3, 4:00 PM)100% (Feb 20, 4:00 AM)30.68 "Hg (Feb 20, 4:00 AM)
Low26 °F (Feb 20, 8:00 AM)40% (Feb 20, 5:00 PM)29.55 "Hg (Feb 21, 1:00 PM)
Average37 °F81%30.08 "Hg
* Reported Feb 18 9:00 PM — Mar 5 9:00 PM, Tuttlingen, Weather by CustomWeather, © 2015

Note: Actual official high and low records may vary slightly from our data, if they occured in-between our weather recording intervals... More about our weather records

Advertising

Tuttlingen weather history for previous 24 hours

 ConditionsComfort  
Time TempWeatherWind HumidityBarometerVisibility
9:00 PM
Thu, Mar 5
36 °FPassing clouds.1 mph69%30.66 "Hg28 mi
8:00 PM37 °FOvercast.1 mph64%30.64 "Hg28 mi
7:00 PM39 °FOvercast.1 mph61%30.63 "Hg28 mi
6:00 PM40 °FOvercast.2 mph55%30.61 "Hg28 mi
5:00 PM42 °FOvercast.2 mph48%30.59 "Hg28 mi
4:00 PM43 °FOvercast.2 mph47%30.58 "Hg28 mi
3:00 PM43 °FPartly sunny.3 mph47%30.58 "Hg25 mi
2:00 PM41 °FPartly sunny.3 mph51%30.60 "Hg28 mi
1:00 PM40 °FOvercast.2 mph61%30.60 "Hg28 mi
12:00 PM38 °FOvercast.3 mph60%30.61 "Hg28 mi
11:00 AM39 °FPartly sunny.5 mph58%30.60 "Hg22 mi
10:00 AM38 °FScattered clouds.3 mph62%30.59 "Hg19 mi
9:00 AM35 °FPartly sunny.1 mph81%30.60 "Hg19 mi
8:00 AM33 °FOvercast.2 mph87%30.58 "Hg19 mi
7:00 AM33 °FLight snow. Overcast.3 mph87%30.57 "Hg14 mi
6:00 AM33 °FLight snow. Overcast.2 mph89%30.57 "Hg10 mi
5:00 AM33 °FSnow flurries. Overcast.2 mph86%30.56 "Hg22 mi
4:00 AM33 °FPassing clouds.3 mph84%30.56 "Hg25 mi
3:00 AM34 °FOvercast.3 mph78%30.55 "Hg31 mi
2:00 AM35 °FOvercast.2 mph76%30.54 "Hg37 mi
1:00 AM35 °FOvercast.2 mph76%30.53 "Hg40 mi
12:00 AM35 °FOvercast.3 mph74%30.52 "Hg43 mi
11:00 PM
Wed, Mar 4
35 °FOvercast.2 mph74%30.50 "Hg37 mi
Weather by CustomWeather, © 2015

See weather overviewHow to use our weather pages